カタログに戻る

STARLINK-34835

運用中通信VLEO
NORAD 65336·PAYLOAD·🇺🇸 United States

打ち上げ Aug 27, 2025 から Cape Canaveral Space Force Station

Loading…

次のパス (今後24時間)

TLE

最新Source: CelesTrak SupGP

元期: Sep 15, 2026, 03:55 UTC

1 65336C 25189P   26258.16368056  .00015974  00000+0  47211-3 0  2587
2 65336  53.1594  44.5992 0001167  91.8523 321.1940 15.34372888    18

AllMySatでSTARLINK-34835をリアルタイム追跡

Download on the App Store